Location: ????????
(38.4362°N, 22.8767°E)
Time: 23:30:32
(UTC+00:00)

Cosmos 1092 Rocket - Visible Passes

Search period start: 29 April 2025 00:00
Search period end: 09 May 2025 00:00
Orbit: 953 x 995 km, 82.9° (Epoch: 28 April)

Date Brightness Start Highest point End Pass type
(mag) Time Alt. Az. Time Alt. Az. Time Alt. Az.
29 Apr 6.7 18:26:17 10° NW 18:30:03 17° W 18:33:49 10° WSW visible
02 May 6.7 17:55:09 10° NW 17:59:35 21° W 18:04:02 10° SW visible
03 May 7.3 18:23:14 10° WNW 18:24:00 10° WNW 18:24:46 10° W visible
06 May 7.1 17:50:51 10° NW 17:53:34 13° W 17:56:18 10° WSW visible
